TimeCDT,TemperatureF,Dew PointF,Humidity,Sea Level PressureIn,VisibilityMPH,Wind Direction,Wind SpeedMPH,Gust SpeedMPH,PrecipitationIn,Events,Conditions,WindDirDegrees,DateUTC
12:53 AM,30.9,21.9,69,30.32,10.0,ESE,3.5,-,N/A,,Clear,110,2013-03-29 05:53:00
1:53 AM,28.9,21.9,75,30.32,9.0,SE,4.6,-,N/A,,Clear,140,2013-03-29 06:53:00
2:53 AM,30.9,24.1,76,30.32,8.0,ESE,6.9,-,N/A,,Scattered Clouds,120,2013-03-29 07:53:00
3:53 AM,30.0,25.0,82,30.31,7.0,SE,4.6,-,N/A,,Overcast,140,2013-03-29 08:53:00
4:53 AM,32.0,25.0,75,30.30,7.0,SE,6.9,-,N/A,,Overcast,130,2013-03-29 09:53:00
5:53 AM,30.9,24.1,76,30.29,7.0,ESE,4.6,-,N/A,,Mostly Cloudy,110,2013-03-29 10:53:00
6:53 AM,30.9,24.1,76,30.29,7.0,ESE,4.6,-,N/A,,Mostly Cloudy,110,2013-03-29 11:53:00
7:53 AM,32.0,25.0,75,30.30,6.0,ESE,5.8,-,N/A,,Haze,120,2013-03-29 12:53:00
8:53 AM,33.1,27.0,78,30.30,6.0,SE,8.1,-,N/A,,Haze,140,2013-03-29 13:53:00
9:53 AM,34.0,28.0,79,30.29,6.0,SSE,9.2,-,N/A,,Haze,150,2013-03-29 14:53:00
10:53 AM,36.0,28.9,76,30.28,7.0,SE,8.1,-,N/A,,Mostly Cloudy,140,2013-03-29 15:53:00
11:53 AM,37.0,30.0,76,30.27,8.0,SSE,9.2,-,N/A,,Mostly Cloudy,150,2013-03-29 16:53:00
12:53 PM,37.9,30.0,73,30.27,9.0,SSE,8.1,-,N/A,,Overcast,160,2013-03-29 17:53:00
1:53 PM,37.9,30.9,76,30.25,9.0,SE,9.2,-,N/A,,Mostly Cloudy,140,2013-03-29 18:53:00
2:53 PM,39.0,30.9,73,30.22,9.0,SSE,11.5,-,N/A,,Clear,150,2013-03-29 19:53:00
3:53 PM,42.1,32.0,67,30.19,9.0,SSE,8.1,-,N/A,,Partly Cloudy,150,2013-03-29 20:53:00
4:53 PM,41.0,32.0,70,30.17,9.0,SE,10.4,-,N/A,,Clear,140,2013-03-29 21:53:00
5:53 PM,41.0,33.1,73,30.16,9.0,SSE,8.1,-,N/A,,Clear,150,2013-03-29 22:53:00
6:53 PM,43.0,33.1,68,30.15,9.0,SE,6.9,-,N/A,,Clear,130,2013-03-29 23:53:00
7:53 PM,41.0,34.0,76,30.14,9.0,SE,9.2,-,N/A,,Overcast,140,2013-03-30 00:53:00
8:53 PM,39.0,34.0,82,30.13,8.0,SE,8.1,-,N/A,,Mostly Cloudy,140,2013-03-30 01:53:00
9:53 PM,39.0,34.0,82,30.13,7.0,SE,8.1,-,0.00,Rain,Light Rain,140,2013-03-30 02:53:00
10:53 PM,39.9,35.1,83,30.10,6.0,SE,8.1,-,0.00,,Haze,130,2013-03-30 03:53:00
11:53 PM,39.0,35.1,86,30.08,6.0,SE,6.9,-,0.00,,Overcast,130,2013-03-30 04:53:00